Location: *
(10.5081°N, 66.9194°W)
Time: 02:12:29
(UTC+00:00)

GEOS 3 Rocket - Pass Details

Date: 30 March 2020
Orbit: 774 x 845 km, 115.0° (Epoch: 25 May)

Event Time Altitude Azimuth Distance (km) Brightness Sun altitude
Exits shadow 23:28:31 16° 116° (ESE) 1,913 5.0 -13.1°
Maximum altitude 23:31:53 35° 59° (ENE) 1,238 4.2 -13.9°
Drops below altitude 10° 23:36:28 10° 354° (N) 2,346 6.2 -15.0°
Sets 23:38:55 0° 346° (NNW) 3,285 7.1 -15.6°
